Tracking 21155 objects as of 15-Aug-2020
HD Live streaming from Space Station
objects crossing your sky now

FENGYUN 1C DEB

Track FENGYUN 1C DEB now!
10-day predictions


NORAD ID: 30557
Int'l Code: 1999-025AKX
Perigee: 840.9 km
Apogee: 950.6 km
Inclination: 99.1 °
Period: 102.7 minutes
Semi major axis: 7266 km
RCS: 0.043 m2 (small)
Launch date: May 10, 1999
Source: People's Republic of China (PRC)
Launch site: Taiyaun Space Center, China (TSC)

Note: This is SATELLITE DEBRIS
aabbcc
Your satellite tracking list
Your tracking list is empty




NASA's NSSDC Master Catalog

Two Line Element Set (TLE):
1 30557U 99025AKX 20228.42582581 +.00000305 +00000-0 +22565-3 0  9995
2 30557 099.0558 286.1191 0075435 249.2255 110.0816 14.01499363689908
Source of the keplerian elements: AFSPC